Tracking 35334 objects as of 13-Sep-2026
HD Live streaming from Space Station
objects crossing your sky now

IRIDIUM 121

Track IRIDIUM 121 now!
10-day predictions
IRIDIUM 121 is classified as:


NORAD ID: 42812
Int'l Code: 2017-039K
Launch date: June 25, 2017
Source: United States (US)
Launch site: AIR FORCE WESTERN TEST RANGE (AFWTR)
Your satellite tracking list
Your tracking list is empty




NASA's NSSDC Master Catalog

Two Line Element Set (TLE):
1 42812U 17039K   26256.21554142  .00000046  00000-0  93127-5 0  9999
2 42812  86.3985 316.8971 0002170  94.6149 265.5294 14.34216958482444
Source of the keplerian elements: AFSPC